WV5G-13 Weather Reports


Display with metric or nautical units.
time (UTC)temp
F
wind
direction
speed
MPH
gust
MPH
rain 1hr
in
rain 24hr
in
rain mn
in
humidity
%
barometer
mb
20240521001313 93 219 10.0 15.0 0.00 0.00 0.00 9 1006.6
20240521000812 93 219 14.0 23.0 0.00 0.00 0.00 8 1006.6
20240521000311 93 231 16.0 21.0 0.00 0.00 0.00 9 1006.6
20240520235810 93 258 13.0 16.0 0.00 0.00 0.00 10 1006.2
20240520235309 93 237 13.0 26.0 0.00 0.00 0.00 8 1006.7
20240520234809 94 230 13.0 21.0 0.00 0.00 0.00 8 1006.6
20240520234307 94 233 15.0 20.0 0.00 0.00 0.00 8 1006.8
20240520233806 94 222 17.0 23.0 0.00 0.00 0.00 8 1006.8
20240520233306 94 232 13.0 18.0 0.00 0.00 0.00 9 1006.9
20240520232805 94 223 16.0 26.0 0.00 0.00 0.00 7 1006.9
20240520232304 95 235 8.0 24.0 0.00 0.00 0.00 8 1006.7
20240520231803 95 219 17.0 28.0 0.00 0.00 0.00 7 1007.0
20240520231302 95 228 12.0 20.0 0.00 0.00 0.00 8 1006.9
20240520230801 95 221 16.0 21.0 0.00 0.00 0.00 8 1007.0
20240520230301 95 222 10.0 15.0 0.00 0.00 0.00 7 1007.0
20240520225759 95 237 15.0 17.0 0.00 0.00 0.00 9 1007.2
20240520225300 95 216 6.0 23.0 0.00 0.00 0.00 8 1007.2
20240520224800 95 222 12.0 24.0 0.00 0.00 0.00 9 1007.3
20240520224259 95 225 12.0 23.0 0.00 0.00 0.00 8 1007.2
20240520223758 95 211 10.0 21.0 0.00 0.00 0.00 8 1007.3
20240520223258 94 229 12.0 21.0 0.00 0.00 0.00 7 1007.3
20240520222758 94 223 11.0 24.0 0.00 0.00 0.00 8 1007.7
20240520222256 95 216 21.0 21.0 0.00 0.00 0.00 7 1007.6
20240520221755 94 239 11.0 27.0 0.00 0.00 0.00 9 1007.8
20240520221255 94 225 10.0 22.0 0.00 0.00 0.00 8 1007.6
20240520220753 95 239 11.0 18.0 0.00 0.00 0.00 11 1007.8
20240520220252 94 226 17.0 27.0 0.00 0.00 0.00 8 1007.9
20240520215750 94 224 18.0 23.0 0.00 0.00 0.00 8 1007.8
20240520215249 95 232 19.0 29.0 0.00 0.00 0.00 8 1007.9
20240520214748 94 218 7.0 19.0 0.00 0.00 0.00 9 1007.9
20240520214246 94 247 10.0 24.0 0.00 0.00 0.00 10 1008.0
20240520213746 95 259 17.0 22.0 0.00 0.00 0.00 9 1008.2
20240520213246 95 221 11.0 21.0 0.00 0.00 0.00 8 1008.1
20240520212746 95 232 13.0 21.0 0.00 0.00 0.00 8 1008.1
20240520212244 94 239 14.0 21.0 0.00 0.00 0.00 8 1008.3
20240520211744 93 239 16.0 19.0 0.00 0.00 0.00 9 1008.5
20240520211243 94 224 25.0 25.0 0.00 0.00 0.00 7 1008.6
20240520210741 94 231 14.0 24.0 0.00 0.00 0.00 8 1008.6
20240520210239 94 211 11.0 28.0 0.00 0.00 0.00 7 1008.6
20240520205738 95 229 27.0 29.0 0.00 0.00 0.00 8 1008.6
20240520205238 95 200 11.0 14.0 0.00 0.00 0.00 8 1008.7
20240520204737 94 207 11.0 22.0 0.00 0.00 0.00 9 1008.9
20240520204237 94 220 11.0 14.0 0.00 0.00 0.00 11 1008.9
20240520203736 94 215 17.0 27.0 0.00 0.00 0.00 9 1009.0
20240520203234 95 214 7.0 29.0 0.00 0.00 0.00 10 1008.9
20240520202733 94 242 10.0 22.0 0.00 0.00 0.00 11 1009.1
20240520202232 94 251 15.0 20.0 0.00 0.00 0.00 11 1009.0
20240520201731 94 231 13.0 26.0 0.00 0.00 0.00 9 1009.2
20240520201229 94 231 12.0 25.0 0.00 0.00 0.00 10 1009.2
20240520200728 94 205 16.0 28.0 0.00 0.00 0.00 10 1009.3
20240520200228 94 242 11.0 17.0 0.00 0.00 0.00 12 1009.3
20240520195727 94 211 16.0 21.0 0.00 0.00 0.00 10 1009.5
20240520195226 94 228 16.0 25.0 0.00 0.00 0.00 10 1009.2
20240520194725 93 262 9.0 13.0 0.00 0.00 0.00 13 1009.3
20240520194225 94 223 14.0 26.0 0.00 0.00 0.00 11 1009.6
20240520193723 93 224 23.0 33.0 0.00 0.00 0.00 11 1009.3
20240520193222 93 256 13.0 26.0 0.00 0.00 0.00 14 1009.5
20240520192722 94 219 24.0 26.0 0.00 0.00 0.00 11 1009.7
20240520192219 94 229 11.0 21.0 0.00 0.00 0.00 12 1009.6
20240520191718 93 217 10.0 20.0 0.00 0.00 0.00 11 1009.7
20240520191216 92 239 17.0 20.0 0.00 0.00 0.00 10 1009.7
20240520190716 92 207 12.0 20.0 0.00 0.00 0.00 11 1009.8
20240520190214 92 212 9.0 22.0 0.00 0.00 0.00 13 1009.5
20240520185704 93 177 7.0 16.0 0.00 0.00 0.00 14 1009.7
20240520185203 92 182 3.0 14.0 0.00 0.00 0.00 15 1009.8
20240520184702 91 77 7.0 10.0 0.00 0.00 0.00 13 1010.0
20240520184201 90 134 5.0 14.0 0.00 0.00 0.00 14 1010.1
20240520183659 89 128 8.0 17.0 0.00 0.00 0.00 14 1010.0
20240520183158 92 59 10.0 10.0 0.00 0.00 0.00 16 1010.3
20240520182657 91 134 5.0 11.0 0.00 0.00 0.00 14 1010.3
20240520182156 90 79 5.0 6.0 0.00 0.00 0.00 18 1010.2
20240520181654 89 45 5.0 7.0 0.00 0.00 0.00 15 1010.5
20240520181152 89 25 3.0 3.0 0.00 0.00 0.00 17 1010.7
20240520180653 89 239 3.0 5.0 0.00 0.00 0.00 16 1010.8
20240520180153 88 95 1.0 5.0 0.00 0.00 0.00 16 1010.9
20240520175651 89 81 4.0 9.0 0.00 0.00 0.00 17 1010.8
20240520175150 88 4 5.0 8.0 0.00 0.00 0.00 17 1010.9
20240520174649 88 355 4.0 7.0 0.00 0.00 0.00 18 1011.1
20240520174150 88 9 3.0 6.0 0.00 0.00 0.00 15 1011.1
20240520173650 87 91 2.0 3.0 0.00 0.00 0.00 16 1011.0
20240520173148 87 11 3.0 5.0 0.00 0.00 0.00 17 1011.1
20240520172647 87 345 3.0 9.0 0.00 0.00 0.00 23 1011.3
20240520172132 87 4 0.0 5.0 0.00 0.00 0.00 20 1011.3
20240520171630 86 7 5.0 10.0 0.00 0.00 0.00 17 1011.5
20240520171129 86 310 5.0 8.0 0.00 0.00 0.00 19 1011.3
20240520170628 86 323 3.0 6.0 0.00 0.00 0.00 20 1011.6
20240520170127 86 353 3.0 7.0 0.00 0.00 0.00 20 1011.7
20240520165626 87 359 5.0 8.0 0.00 0.00 0.00 19 1011.5
20240520165124 86 334 3.0 9.0 0.00 0.00 0.00 22 1011.7
20240520164622 86 338 7.0 8.0 0.00 0.00 0.00 19 1011.6
20240520164121 86 358 5.0 10.0 0.00 0.00 0.00 21 1011.6
20240520163619 86 1 5.0 9.0 0.00 0.00 0.00 18 1011.5
20240520163117 85 304 7.0 10.0 0.00 0.00 0.00 22 1011.6
20240520162615 86 329 7.0 10.0 0.00 0.00 0.00 18 1011.3
20240520162113 85 336 4.0 9.0 0.00 0.00 0.00 16 1011.5
20240520161542 85 325 9.0 10.0 0.00 0.00 0.00 19 1011.6
20240520161040 85 303 5.0 9.0 0.00 0.00 0.00 18 1011.6
20240520160538 85 309 8.0 11.0 0.00 0.00 0.00 17 1011.6
20240520160036 84 310 10.0 13.0 0.00 0.00 0.00 17 1011.3
20240520155533 85 313 12.0 15.0 0.00 0.00 0.00 16 1011.6
20240520155027 84 318 5.0 11.0 0.00 0.00 0.00 20 1011.6
20240520154526 83 277 3.0 8.0 0.00 0.00 0.00 20 1011.3
20240520154025 84 347 5.0 11.0 0.00 0.00 0.00 19 1011.3
20240520153524 83 331 3.0 8.0 0.00 0.00 0.00 20 1011.5
20240520153023 83 346 10.0 11.0 0.00 0.00 0.00 20 1011.2
20240520152522 82 335 4.0 9.0 0.00 0.00 0.00 22 1011.5
20240520152021 83 316 3.0 9.0 0.00 0.00 0.00 21 1011.2
20240520151518 82 325 9.0 14.0 0.00 0.00 0.00 17 1011.2
20240520151016 82 300 6.0 11.0 0.00 0.00 0.00 19 1011.3
20240520150515 82 292 6.0 10.0 0.00 0.00 0.00 20 1011.2
20240520150015 81 314 9.0 10.0 0.00 0.00 0.00 20 1011.1
20240520145513 81 323 9.0 13.0 0.00 0.00 0.00 20 1011.1
20240520145010 81 303 4.0 9.0 0.00 0.00 0.00 22 1010.9
20240520144509 81 327 10.0 12.0 0.00 0.00 0.00 19 1011.0
20240520144005 81 321 8.0 13.0 0.00 0.00 0.00 20 1010.9
20240520143502 81 309 9.0 13.0 0.00 0.00 0.00 19 1010.9
20240520142959 80 311 10.0 15.0 0.00 0.00 0.00 18 1010.9
20240520142456 80 318 10.0 15.0 0.00 0.00 0.00 18 1010.7
20240520141956 80 306 11.0 11.0 0.00 0.00 0.00 19 1010.9
20240520141419 79 318 6.0 13.0 0.00 0.00 0.00 20 1010.6
20240520140918 79 330 8.0 12.0 0.00 0.00 0.00 19 1010.8
20240520140416 78 319 9.0 11.0 0.00 0.00 0.00 21 1010.9
20240520135916 77 321 7.0 13.0 0.00 0.00 0.00 21 1010.7
20240520135414 77 309 7.0 12.0 0.00 0.00 0.00 22 1010.7
20240520134913 76 300 6.0 10.0 0.00 0.00 0.00 22 1010.6
20240520134411 75 316 5.0 10.0 0.00 0.00 0.00 23 1010.5
20240520133910 74 308 5.0 11.0 0.00 0.00 0.00 23 1010.6
20240520133408 73 315 8.0 11.0 0.00 0.00 0.00 24 1010.5
20240520132907 73 314 6.0 10.0 0.00 0.00 0.00 23 1010.3
20240520132406 72 299 8.0 12.0 0.00 0.00 0.00 23 1010.3
20240520131904 70 291 7.0 11.0 0.00 0.00 0.00 27 1010.5
20240520131403 68 312 3.0 5.0 0.00 0.00 0.00 28 1010.3
20240520130903 67 316 4.0 7.0 0.00 0.00 0.00 29 1010.5
20240520130402 67 327 9.0 11.0 0.00 0.00 0.00 27 1010.5
20240520125900 66 318 6.0 12.0 0.00 0.00 0.00 28 1010.5
20240520125358 65 312 8.0 11.0 0.00 0.00 0.00 29 1010.3
20240520124857 64 295 5.0 11.0 0.00 0.00 0.00 31 1010.5
20240520124356 64 271 6.0 9.0 0.00 0.00 0.00 32 1010.0
20240520123855 63 275 4.0 10.0 0.00 0.00 0.00 32 1010.5
20240520123355 61 265 3.0 6.0 0.00 0.00 0.00 36 1010.2
20240520122853 60 269 5.0 7.0 0.00 0.00 0.00 36 1010.1
20240520122352 58 338 4.0 5.0 0.00 0.00 0.00 40 1010.2
20240520121851 56 325 2.0 7.0 0.00 0.00 0.00 45 1010.2
20240520121349 58 301 3.0 8.0 0.00 0.00 0.00 38 1010.0
20240520120847 57 322 0.0 5.0 0.00 0.00 0.00 40 1010.1
20240520120346 58 294 3.0 7.0 0.00 0.00 0.00 38 1010.0
20240520115844 55 326 3.0 5.0 0.00 0.00 0.00 41 1009.9
20240520115342 57 249 4.0 8.0 0.00 0.00 0.00 39 1009.8
20240520114841 55 282 4.0 8.0 0.00 0.00 0.00 40 1009.8
20240520114342 54 308 4.0 6.0 0.00 0.00 0.00 44 1009.9
20240520113841 52 245 3.0 6.0 0.00 0.00 0.00 47 1009.8
20240520113339 51 273 3.0 5.0 0.00 0.00 0.00 49 1009.7
20240520112838 52 257 3.0 5.0 0.00 0.00 0.00 49 1009.9
20240520112337 52 229 2.0 5.0 0.00 0.00 0.00 48 1009.8
20240520111836 53 262 3.0 4.0 0.00 0.00 0.00 47 1009.8
20240520111336 53 266 3.0 5.0 0.00 0.00 0.00 45 1009.7
20240520110835 54 274 1.0 4.0 0.00 0.00 0.00 44 1009.8
20240520110333 55 266 4.0 9.0 0.00 0.00 0.00 43 1009.6
20240520105832 57 274 4.0 7.0 0.00 0.00 0.00 39 1009.6
20240520105330 57 281 5.0 8.0 0.00 0.00 0.00 39 1009.6
20240520104828 56 250 6.0 8.0 0.00 0.00 0.00 41 1009.6
20240520104328 57 253 5.0 9.0 0.00 0.00 0.00 39 1009.5
20240520103826 58 280 3.0 8.0 0.00 0.00 0.00 38 1009.5
20240520103324 58 249 7.0 13.0 0.00 0.00 0.00 36 1009.3
20240520102823 57 243 6.0 10.0 0.00 0.00 0.00 38 1009.3
20240520102322 57 243 5.0 9.0 0.00 0.00 0.00 38 1009.2
20240520101820 57 250 5.0 12.0 0.00 0.00 0.00 39 1009.2
20240520101317 57 256 3.0 8.0 0.00 0.00 0.00 39 1009.2
20240520100802 57 246 4.0 10.0 0.00 0.00 0.00 39 1009.3
20240520100301 56 259 3.0 8.0 0.00 0.00 0.00 41 1009.5
20240520095800 57 253 6.0 6.0 0.00 0.00 0.00 41 1009.1
20240520095300 56 257 3.0 6.0 0.00 0.00 0.00 41 1009.5
20240520094759 57 235 4.0 6.0 0.00 0.00 0.00 40 1009.2
20240520094258 57 255 3.0 6.0 0.00 0.00 0.00 40 1009.2
20240520093758 57 222 3.0 6.0 0.00 0.00 0.00 40 1009.5
20240520093258 57 242 3.0 7.0 0.00 0.00 0.00 38 1009.1
20240520092756 59 235 5.0 9.0 0.00 0.00 0.00 36 1009.1
20240520092254 59 267 3.0 7.0 0.00 0.00 0.00 35 1009.2
20240520091753 60 256 5.0 9.0 0.00 0.00 0.00 34 1009.1
20240520091251 61 262 5.0 10.0 0.00 0.00 0.00 32 1009.5
20240520090751 60 258 7.0 10.0 0.00 0.00 0.00 33 1009.6
20240520090251 61 249 6.0 9.0 0.00 0.00 0.00 32 1009.2
20240520085750 61 265 5.0 8.0 0.00 0.00 0.00 33 1009.2
20240520085249 60 274 5.0 7.0 0.00 0.00 0.00 34 1009.3
20240520084748 60 245 4.0 8.0 0.00 0.00 0.00 35 1009.5
20240520084247 59 253 4.0 8.0 0.00 0.00 0.00 36 1009.2
20240520083746 59 253 3.0 3.0 0.00 0.00 0.00 37 1009.5
20240520083245 58 257 1.0 4.0 0.00 0.00 0.00 38 1009.5
20240520082744 59 264 3.0 5.0 0.00 0.00 0.00 38 1009.3
20240520082242 60 224 4.0 7.0 0.00 0.00 0.00 36 1009.5
20240520081741 60 246 3.0 5.0 0.00 0.00 0.00 36 1009.3
20240520081240 60 257 3.0 6.0 0.00 0.00 0.00 36 1009.3
20240520080739 59 263 4.0 5.0 0.00 0.00 0.00 37 1009.3
20240520080239 58 263 1.0 3.0 0.00 0.00 0.00 40 1009.6
20240520075737 59 264 3.0 5.0 0.00 0.00 0.00 39 1009.5
20240520075236 59 261 3.0 5.0 0.00 0.00 0.00 38 1009.3
20240520074735 59 245 3.0 5.0 0.00 0.00 0.00 38 1009.5
20240520074234 61 243 4.0 11.0 0.00 0.00 0.00 36 1009.8
20240520073734 60 230 9.0 10.0 0.00 0.00 0.00 35 1009.7
20240520073233 61 256 5.0 6.0 0.00 0.00 0.00 34 1009.5
20240520072734 60 229 4.0 5.0 0.00 0.00 0.00 34 1009.5
20240520072233 60 241 3.0 5.0 0.00 0.00 0.00 37 1009.3
20240520071731 63 242 4.0 7.0 0.00 0.00 0.00 32 1009.6
20240520071229 63 234 7.0 7.0 0.00 0.00 0.00 30 1009.6
20240520070727 63 239 5.0 6.0 0.00 0.00 0.00 31 1009.3
20240520070227 63 254 2.0 4.0 0.00 0.00 0.00 32 1009.5
20240520065726 64 226 4.0 6.0 0.00 0.00 0.00 31 1009.5
20240520065225 64 237 4.0 6.0 0.00 0.00 0.00 30 1009.6
20240520064724 64 236 4.0 6.0 0.00 0.00 0.00 29 1009.5
20240520064223 64 229 4.0 5.0 0.00 0.00 0.00 30 1009.5
20240520063722 64 222 4.0 6.0 0.00 0.00 0.00 31 1009.2
20240520063222 64 236 4.0 5.0 0.00 0.00 0.00 31 1009.7
20240520062722 63 227 3.0 5.0 0.00 0.00 0.00 32 1009.5
20240520062220 64 220 3.0 5.0 0.00 0.00 0.00 31 1009.5
20240520061719 64 266 3.0 6.0 0.00 0.00 0.00 32 1009.5
20240520061218 63 222 5.0 7.0 0.00 0.00 0.00 32 1009.3
20240520060717 64 233 3.0 6.0 0.00 0.00 0.00 32 1009.3
20240520060216 65 230 5.0 8.0 0.00 0.00 0.00 31 1009.5
20240520055714 65 229 4.0 8.0 0.00 0.00 0.00 30 1009.3
20240520055213 66 219 5.0 8.0 0.00 0.00 0.00 29 1009.5
20240520054713 66 223 4.0 9.0 0.00 0.00 0.00 30 1009.3
20240520054212 66 220 5.0 9.0 0.00 0.00 0.00 30 1009.3
20240520053711 66 191 4.0 5.0 0.00 0.00 0.00 30 1009.3
20240520053211 66 220 4.0 7.0 0.00 0.00 0.00 29 1009.3
20240520052710 67 228 3.0 7.0 0.00 0.00 0.00 30 1009.5
20240520052209 66 215 5.0 9.0 0.00 0.00 0.00 30 1009.5
20240520051708 66 222 5.0 10.0 0.00 0.00 0.00 30 1009.3
20240520051207 68 210 5.0 10.0 0.00 0.00 0.00 28 1009.2
20240520050707 70 216 3.0 8.0 0.00 0.00 0.00 25 1009.1
20240520050206 72 215 7.0 7.0 0.00 0.00 0.00 23 1009.2
20240520045705 72 213 3.0 5.0 0.00 0.00 0.00 22 1009.2
20240520045204 72 205 3.0 3.0 0.00 0.00 0.00 22 1009.1
20240520044702 71 212 2.0 3.0 0.00 0.00 0.00 24 1009.2
20240520044200 71 13 0.0 0.0 0.00 0.00 0.00 24 1009.1
20240520043659 70 13 0.0 0.0 0.00 0.00 0.00 23 1009.3
20240520043159 71 32 0.0 1.0 0.00 0.00 0.00 23 1009.3
20240520042658 72 62 0.0 0.0 0.00 0.00 0.00 22 1009.2
20240520042156 74 343 0.0 2.0 0.00 0.00 0.00 20 1009.1
20240520041655 75 330 2.0 3.0 0.00 0.00 0.00 19 1009.1
20240520041154 75 308 3.0 6.0 0.00 0.00 0.00 20 1008.9
20240520040652 75 292 3.0 5.0 0.00 0.00 0.00 20 1009.1
20240520040151 74 273 3.0 4.0 0.00 0.00 0.00 21 1008.8
20240520035650 76 281 3.0 5.0 0.00 0.00 0.00 20 1009.0
20240520035149 76 288 3.0 5.0 0.00 0.00 0.00 19 1008.9
20240520034648 76 292 4.0 5.0 0.00 0.00 0.00 20 1008.9
20240520034145 76 302 3.0 5.0 0.00 0.00 0.00 20 1008.8
20240520033644 76 293 4.0 6.0 0.00 0.00 0.00 20 1008.9
20240520033142 77 303 3.0 5.0 0.00 0.00 0.00 20 1008.7
20240520032641 77 301 3.0 5.0 0.00 0.00 0.00 19 1008.7
20240520032139 78 297 3.0 5.0 0.00 0.00 0.00 19 1008.7
20240520031637 78 285 4.0 6.0 0.00 0.00 0.00 19 1008.7
20240520031137 78 320 3.0 5.0 0.00 0.00 0.00 20 1008.8
20240520030635 79 299 3.0 5.0 0.00 0.00 0.00 20 1008.5
20240520030134 79 320 3.0 5.0 0.00 0.00 0.00 21 1008.6
20240520025634 79 297 3.0 4.0 0.00 0.00 0.00 21 1008.6
20240520025132 80 288 3.0 8.0 0.00 0.00 0.00 21 1008.6
20240520024632 81 305 5.0 9.0 0.00 0.00 0.00 19 1008.5
20240520024131 80 285 4.0 6.0 0.00 0.00 0.00 22 1008.5
20240520023629 79 287 2.0 4.0 0.00 0.00 0.00 23 1008.3
20240520023127 79 281 3.0 4.0 0.00 0.00 0.00 23 1008.3
20240520022626 80 312 4.0 7.0 0.00 0.00 0.00 23 1008.2
20240520022125 81 313 7.0 7.0 0.00 0.00 0.00 21 1007.7
20240520021623 81 283 5.0 9.0 0.00 0.00 0.00 21 1008.0
20240520021120 84 245 7.0 14.0 0.00 0.00 0.00 20 1007.9
20240520020620 82 269 6.0 6.0 0.00 0.00 0.00 21 1007.7
20240520020120 85 234 7.0 7.0 0.00 0.00 0.00 19 1007.4
20240520015619 85 212 6.0 6.0 0.00 0.00 0.00 18 1007.4
20240520015119 84 217 3.0 5.0 0.00 0.00 0.00 19 1007.2
20240520014618 84 205 3.0 4.0 0.00 0.00 0.00 20 1007.3
20240520014117 84 248 3.0 5.0 0.00 0.00 0.00 20 1007.2
20240520013616 85 230 3.0 5.0 0.00 0.00 0.00 19 1007.4
20240520013116 86 237 4.0 5.0 0.00 0.00 0.00 19 1007.2
20240520012614 86 208 4.0 6.0 0.00 0.00 0.00 18 1007.2
20240520012114 86 214 4.0 9.0 0.00 0.00 0.00 18 1007.3
20240520011614 87 222 8.0 9.0 0.00 0.00 0.00 17 1007.3
20240520011111 88 220 9.0 15.0 0.00 0.00 0.00 16 1007.3
20240520010609 88 231 7.0 13.0 0.00 0.00 0.00 16 1007.2
20240520010108 88 226 5.0 12.0 0.00 0.00 0.00 15 1007.4
20240520005607 89 228 11.0 16.0 0.00 0.00 0.00 15 1007.2
20240520005106 90 222 9.0 19.0 0.00 0.00 0.00 15 1007.6
20240520004604 90 224 8.0 19.0 0.00 0.00 0.00 15 1007.3
20240520004104 91 221 9.0 18.0 0.00 0.00 0.00 14 1007.3
20240520003603 92 231 17.0 27.0 0.00 0.00 0.00 12 1007.4
20240520003102 92 235 15.0 30.0 0.00 0.00 0.00 13 1007.6
20240520002601 92 222 16.0 26.0 0.00 0.00 0.00 13 1007.4
20240520002101 92 224 18.0 28.0 0.00 0.00 0.00 13 1007.6